Weather Roundup
Issued by NWS Chicago, IL

Home | Current Version | Previous Version | Text Only | Print | Product List | Glossary Off
Versions: 1 2 3 4 5 6 7 8 9 10 11 12 13 14 15 16 17 18 19 20 21 22 23 24 25 26 27 28 29 30 31 32 33 34 35 36 37 38 39 40 41 42 43 44 45 46 47 48 49 50

000
NZUS59 KLOT 291709
HRRLOT

CHICAGO AREA WEATHER ROUNDUP
NATIONAL WEATHER SERVICE CHICAGO/ROMEOVILLE IL
1200 PM CDT SUN MAY 29 2016

NOTE: "FAIR" INDICATES FEW OR NO CLOUDS BELOW 12,000 FEET WITH NO
SIGNIFICANT WEATHER AND/OR OBSTRUCTIONS TO VISIBILITY.

* THESE STATIONS ARE NOT UNDER NWS QUALITY CONTROL. THEY ALSO MAY NOT
  REPORT WEATHER SUCH AS PRECIPITATION OR FOG.

ILZ005-006-012>014-019>023-291800-
NORTHEAST ILLINOIS

CITY           SKY/WX    TMP DP  RH WIND       PRES   REMARKS
OHARE          PTSUNNY   75  61  61 W17G23    30.01R
MIDWAY         MOSUNNY   77  57  50 SW20G26   30.01R
AURORA         MOSUNNY   74  63  68 W15G21    30.04S
LANSING*       PTSUNNY   80  59  49 SW18G29   30.01S HX  80
JOLIET*        PTSUNNY   78  61  56 W8G17     30.03S
WAUKEGAN       PTSUNNY   73  62  68 W8        29.99S
DUPAGE AIRPORT MOSUNNY   73  61  65 W17       30.03R
WHEELING       PTSUNNY   74  60  61 W14G25    30.02R
KANKAKEE*      MOSUNNY   80  60  50 W16       30.05R HX  81
MORRIS*        PTSUNNY   77  60  55 W17       30.02F
LEWIS AIRPORT* PTSUNNY   78  57  48 W18       30.03S
$$

WIZ051-052-058>065-066-070>072-291800-
SOUTHEAST WISCONSIN

CITY           SKY/WX    TMP DP  RH WIND       PRES   REMARKS
MILWAUKEE      PTSUNNY   73  59  61 SW16G23   29.97S
KENOSHA*       MOSUNNY   74  61  63 W18G25    29.99S
RACINE*        PTSUNNY   73  59  61 W15G24    29.99S
BURLINGTON     PTSUNNY   70  60  70 SW12G17   29.99S
WAUKESHA       PTSUNNY   70  59  68 SW16G23   29.98S
WEST BEND      CLOUDY    70  61  73 W12       29.95S
$$

INZ001>003-010>013-019-020-291800-
NORTHWEST INDIANA

CITY           SKY/WX    TMP DP  RH WIND       PRES   REMARKS
GARY*          PTSUNNY   81  66  61 SW20G32   30.02S HX  83
MICHIGAN CITY* NOT AVBL
RENSSELAER*    NOT AVBL
VALPARAISO     MOSUNNY   81  58  45 W18G28    30.03F HX  81
$$

LMZ740>746-291800-
SOUTHERN LAKE MICHIGAN

STATION/POSITION TIME  SKY/WX   TEMP WIND        PRES    VSBY
                                AIR  DIR/SP/G
                 (UTC)          (F)  (DEG/KT/KT) (MB)    (MI)
HARRISON CRIB    1600            75  230/ 19/ 22   N/A
BURNHAM HARBOR   1700            76  260/ 11/ 18   N/A
CALUMET HARBOR   1600            77  210/ 14/ 22 1015.5R
BURNS HARBOR     1600            77  220/ 19/ 24 1016.6F
MICHIGAN CITY    1600            76  190/ 18/ 20   N/A
$$

ABBREVIATIONS USED IN REMARKS
   TC - TEMPERATURE IN CELSIUS
  WCI - WIND CHILL INDEX
   HX - HEAT INDEX
  VSB - VISIBILITY
$$



USA.gov is the U.S. government's official web portal to all federal, state and local government web resources and services.